[[{"header":{"parameterUnit":"m.s-1","parameterCategory":2,"la1":30.2991,"la2":30.254,"lo1":-89.0895,"lo2":-89.0444,"dy":0.0017,"dx":0.0017,"nx":28,"ny":28,"refTime":"2024-10-13T21:00:00:Z","depth":"0","parameterNumber":2,"parameterNumberName":"U-component_of_CURRENTS"},"data":[0,0,0,0,0,0,0,0,0,0,0,0,0,0,0,0,0,0,0,0,0,0,0,0,0,0,0,0,0,0,0,0,0,0,0,0,0,0,0,0,0,0,0,0,0,0,0,0,0,0,0,0,0,0,0,0,0,0,-0.3209,-0.321,0,-0.3204,-0.3204,-0.3203,-0.3145,-0.3144,-0.3143,-0.3142,-0.3058,-0.3057,-0.3056,0,0,0,0,0,0,0,0,0,0,0,0,0,-0.3137,-0.3138,-0.3209,-0.321,-0.321,-0.3204,-0.3204,-0.3203,-0.3145,-0.3144,-0.3143,-0.3142,-0.3058,-0.3057,-0.3055,0,0,0,0,0,0,0,0,0,0,0,0,0,-0.3149,-0.3138,-0.3209,-0.3184,-0.3182,-0.3204,-0.3204,-0.3203,-0.3146,-0.3144,-0.3143,-0.3141,-0.3059,-0.3057,-0.3055,-0.3075,0,0,-0.3049,-0.3049,0,0,0,0,0,0,0,0,-0.3149,-0.3151,-0.3187,-0.3186,-0.3183,-0.3178,-0.3148,-0.3158,-0.3146,-0.3155,-0.3142,-0.314,-0.3095,-0.309,-0.3087,-0.3071,-0.3067,-0.3049,-0.3048,-0.3047,-0.3047,0,0,0,0,0,0,0,-0.3148,-0.3151,-0.3203,-0.3188,-0.3186,-0.3162,-0.3162,-0.3149,-0.3129,-0.3154,-0.3151,-0.3158,-0.3092,-0.3089,-0.3085,-0.3066,-0.3049,-0.3048,-0.3046,-0.3046,-0.3041,-0.3042,0,0,0,0,0,0,-0.3162,-0.3151,-0.3203,-0.3203,-0.3167,-0.3165,-0.3165,-0.3177,-0.313,-0.3124,-0.3159,-0.3155,-0.3093,-0.3087,-0.3081,-0.3095,-0.3047,-0.3045,-0.3044,-0.304,-0.3041,-0.3042,0,0,0,0,0,0,-0.316,-0.3167,-0.3203,-0.318,-0.3183,-0.3169,-0.3183,-0.3178,-0.3171,-0.3136,-0.3127,-0.3157,-0.3092,-0.3084,-0.307,-0.3091,-0.3045,-0.3043,-0.3038,-0.304,-0.3041,-0.3126,0,0,0,0,0,0,-0.3158,-0.3166,-0.3177,-0.3181,-0.3185,-0.3226,-0.3185,-0.3179,-0.3181,-0.3175,-0.3132,-0.3122,-0.309,-0.3073,-0.3068,-0.3088,-0.3041,-0.3037,-0.3039,-0.3041,-0.3122,-0.313,-0.3138,0,0,0,0,0,-0.3156,-0.319,-0.3178,-0.3184,-0.3202,-0.3228,-0.3228,-0.3208,-0.3182,-0.3192,-0.3156,-0.3123,-0.3081,-0.3073,-0.3066,-0.3086,-0.3036,-0.3039,-0.3041,-0.3119,-0.3129,-0.3137,0,0,0,0,0,0,-0.3165,-0.3188,-0.3174,-0.3212,-0.322,-0.322,-0.3231,-0.3215,-0.3196,-0.3186,-0.3137,-0.3127,-0.312,-0.3095,-0.3087,-0.309,-0.3054,-0.3055,-0.3115,-0.3124,-0.3132,-0.3132,-0.304,0,0,0,0,0,-0.3175,-0.3202,-0.3213,-0.3241,-0.3248,-0.3237,-0.3242,-0.3234,-0.3222,-0.3212,-0.3182,-0.3151,-0.3128,-0.3119,-0.3096,-0.3104,-0.3081,-0.3112,-0.312,-0.3127,-0.3123,-0.3106,-0.3112,-0.3049,-0.3049,-0.3049,0,0,-0.3186,-0.3203,-0.3217,-0.3245,-0.3245,-0.3276,-0.3235,-0.3257,-0.3272,-0.3207,-0.3211,-0.3175,-0.3134,-0.3137,-0.3132,-0.3118,-0.3138,-0.3129,-0.3136,-0.3128,-0.3109,-0.3115,-0.312,-0.3051,-0.3051,-0.305,0,0,-0.3235,-0.3237,-0.3276,-0.3291,-0.331,-0.3308,-0.3317,-0.332,-0.3305,-0.3315,-0.3263,-0.3238,-0.3221,-0.3188,-0.317,-0.3208,-0.3175,-0.3209,-0.3253,-0.3238,-0.3243,-0.3247,-0.325,-0.3254,-0.3218,-0.3218,-0.3218,0,-0.3249,-0.3299,-0.3291,-0.3333,-0.3356,-0.3326,-0.3374,-0.3362,-0.3358,-0.3353,-0.3328,-0.3283,-0.3243,-0.323,-0.3238,-0.3224,-0.3219,-0.3223,-0.3248,-0.3252,-0.3254,-0.3256,-0.3259,-0.3223,-0.3222,-0.3222,-0.3221,0,-0.3322,-0.3364,-0.3391,-0.3432,-0.3451,-0.3491,-0.3482,-0.3488,-0.3467,-0.3449,-0.343,-0.3372,-0.3344,-0.3331,-0.3293,-0.3294,-0.3287,-0.3257,-0.3226,-0.3266,-0.3265,-0.3267,-0.3229,-0.3227,-0.3226,-0.3225,0,0,-0.3342,-0.3432,-0.3435,-0.3475,-0.3511,-0.3535,-0.3562,-0.3577,-0.3585,-0.3554,-0.3557,-0.3501,-0.3454,-0.3429,-0.3376,-0.3355,-0.3367,-0.3321,-0.3318,-0.3327,-0.3355,-0.3201,-0.3187,-0.3348,-0.3348,-0.3348,-0.3357,0,-0.34,-0.3515,-0.3532,-0.3617,-0.3674,-0.3665,-0.369,-0.3691,-0.3672,-0.3663,-0.3586,-0.3562,-0.3496,-0.3479,-0.3447,-0.3378,-0.337,-0.3368,-0.3312,-0.3311,-0.317,-0.3182,-0.3054,-0.3037,-0.3358,-0.3358,-0.3358,0,-0.3445,-0.3528,-0.3642,-0.3723,-0.3741,-0.3776,-0.3809,-0.3825,-0.3796,-0.3777,-0.3737,-0.3675,-0.362,-0.3558,-0.3477,-0.3483,-0.343,-0.3378,-0.3377,-0.3197,-0.3156,-0.3044,-0.3027,-0.2988,-0.336,-0.336,-0.3359,0,-0.3462,-0.3581,-0.3681,-0.3714,-0.3806,-0.3835,-0.3859,-0.3859,-0.3855,-0.3838,-0.3824,-0.3766,-0.3702,-0.3647,-0.3497,-0.3514,-0.3395,-0.3411,-0.3231,-0.3222,-0.3078,-0.3053,-0.3008,-0.3368,-0.3368,-0.3368,-0.3368,0,-0.3514,-0.358,-0.3698,-0.3756,-0.3836,-0.3873,-0.3917,-0.393,-0.3922,-0.3877,-0.3866,-0.3792,-0.3715,-0.3615,-0.3535,-0.335,-0.3425,-0.3231,-0.3201,-0.3105,-0.3083,-0.301,-0.3032,-0.3369,-0.3369,-0.3369,-0.3369,0,-0.3511,-0.3596,-0.3704,-0.3824,-0.3851,-0.3896,-0.3939,-0.3921,-0.3958,-0.3899,-0.3887,-0.3811,-0.3664,-0.3569,-0.3442,-0.3353,-0.3158,-0.315,-0.3037,-0.2991,-0.2799,-0.283,-0.2732,-0.2666,-0.3008,-0.3004,-0.3001,0,-0.3528,-0.3595,-0.3736,-0.3751,-0.3801,-0.3867,-0.3852,-0.3914,-0.3878,-0.3854,-0.378,-0.3678,-0.3502,-0.3289,-0.3125,-0.2981,-0.2969,-0.2803,-0.2793,-0.2752,-0.2769,-0.2793,-0.275,-0.2673,-0.2667,-0.2662,-0.2658,0,-0.3526,-0.357,-0.3633,-0.3687,-0.3694,-0.3716,-0.3717,-0.3723,-0.3722,-0.3675,-0.3534,-0.3423,-0.3218,-0.2956,-0.2777,-0.2682,-0.2726,-0.2698,-0.2689,-0.2512,-0.2505,-0.2438,-0.2734,-0.2616,-0.262,-0.2623,-0.2626,-0.2627,-0.345,-0.3475,-0.351,-0.3535,-0.3537,-0.3475,-0.3421,-0.3399,-0.332,-0.317,-0.3226,-0.2992,-0.2834,-0.2538,-0.2444,-0.2268,-0.2378,-0.2231,-0.2284,-0.2323,-0.2203,-0.2391,-0.2202,-0.2203,-0.2205,-0.2206,-0.2207,0,-0.3268,-0.3289,-0.3322,-0.3287,-0.3194,-0.3272,-0.3212,-0.3094,-0.2907,-0.2822,-0.2686,-0.2479,-0.2252,-0.2158,-0.1992,-0.1901,-0.1904,-0.1875,-0.1924,-0.1909,-0.2094,-0.2018,-0.1735,-0.1735,-0.1735,-0.1736,-0.1736,-0.1736,-0.3143,-0.3085,-0.3107,-0.291,-0.2884,-0.2693,-0.2626,-0.2494,-0.2402,-0.2126,-0.1985,-0.1956,-0.1898,-0.1936,-0.179,-0.1716,-0.1713,-0.1641,-0.1699,-0.1879,-0.1919,-0.1957,-0.1888,-0.1583,-0.1583,-0.1449,-0.1449,-0.1448]},{"header":{"parameterUnit":"m.s-1","parameterCategory":2,"la1":30.2991,"la2":30.254,"lo1":-89.0895,"lo2":-89.0444,"dy":0.0017,"dx":0.0017,"nx":28,"ny":28,"refTime":"2024-10-13T21:00:00:Z","depth":"0","parameterNumber":3,"parameterNumberName":"V-component_of_CURRENTS"},"data":[0,0,0,0,0,0,0,0,0,0,0,0,0,0,0,0,0,0,0,0,0,0,0,0,0,0,0,0,0,0,0,0,0,0,0,0,0,0,0,0,0,0,0,0,0,0,0,0,0,0,0,0,0,0,0,0,0,0,0.0015,0.0016,0,0.0149,0.0151,0.0153,0.0226,0.0226,0.0225,0.0225,0.0369,0.0373,0.0377,0,0,0,0,0,0,0,0,0,0,0,0,0,-0.0043,-0.0042,0.0015,0.0016,0.0017,0.0148,0.0151,0.0153,0.0226,0.0226,0.0225,0.0225,0.0367,0.0372,0.0377,0,0,0,0,0,0,0,0,0,0,0,0,0,0.0032,-0.0042,0.0015,0.0065,0.007,0.0148,0.0151,0.0154,0.0226,0.0226,0.0225,0.0224,0.0365,0.0372,0.0378,0.043,0,0,0.0397,0.04,0,0,0,0,0,0,0,0,0.0027,0.0035,0.0056,0.0061,0.0067,0.0164,0.0183,0.0244,0.0226,0.0174,0.0225,0.0224,0.0297,0.0309,0.0345,0.0437,0.0443,0.0398,0.0402,0.0404,0.0406,0,0,0,0,0,0,0,0.0022,0.003,0.0075,0.0057,0.0064,0.0125,0.0135,0.0196,0.0243,0.0179,0.0183,0.0187,0.0301,0.0339,0.0349,0.0445,0.0398,0.0403,0.0407,0.041,0.0601,0.0603,0,0,0,0,0,0,-0.0014,0.0024,0.0071,0.0078,0.0038,0.0126,0.0137,0.0139,0.0242,0.0255,0.0187,0.0189,0.0328,0.0341,0.0354,0.0427,0.0404,0.041,0.0414,0.06,0.0602,0.0603,0,0,0,0,0,0,-0.0016,-0.0012,0.0065,0.0049,0.0062,0.0126,0.0129,0.0142,0.0177,0.0247,0.0262,0.0206,0.0328,0.0345,0.0414,0.0433,0.0413,0.0419,0.0598,0.06,0.0602,0.0569,0,0,0,0,0,0,-0.0018,-0.0013,-0.002,0.0046,0.0062,0.0108,0.0129,0.0145,0.0177,0.0182,0.0269,0.0282,0.0329,0.0404,0.042,0.0441,0.0424,0.0597,0.0599,0.0602,0.0569,0.057,0.0571,0,0,0,0,0,-0.0021,-0.0031,-0.0021,-0.0015,0.0049,0.0108,0.0123,0.0171,0.0178,0.0199,0.0258,0.0279,0.043,0.041,0.0429,0.0452,0.0596,0.0599,0.0601,0.0568,0.057,0.0571,0,0,0,0,0,0,-0.0061,-0.0023,-0.0011,-0.001,0.0041,0.0117,0.0133,0.0167,0.0233,0.023,0.03,0.0319,0.0385,0.0425,0.0401,0.0515,0.0515,0.0522,0.0484,0.0486,0.0487,0.0471,0.0429,0,0,0,0,0,-0.0076,-0.0074,-0.0019,-0.0019,0.0001,0.0067,0.0095,0.0128,0.0189,0.0217,0.0282,0.0348,0.0415,0.0452,0.0514,0.0579,0.0607,0.0607,0.0607,0.0608,0.0609,0.0651,0.0655,0.0612,0.0612,0.0612,0,0,-0.0097,-0.0074,-0.0075,-0.0028,0.0014,0.0054,0.0085,0.012,0.0161,0.0222,0.0296,0.0352,0.0432,0.0505,0.0538,0.0539,0.0639,0.0612,0.0611,0.0612,0.0655,0.0658,0.0662,0.0614,0.0614,0.0614,0,0,-0.0127,-0.0112,-0.0114,-0.0069,-0.0018,0.0032,0.0037,0.0116,0.0156,0.0231,0.0283,0.0352,0.0455,0.0522,0.0566,0.0613,0.0639,0.0628,0.0627,0.0668,0.0671,0.0674,0.0723,0.0731,0.0632,0.0632,0.0632,0,-0.0154,-0.0145,-0.0102,-0.0078,-0.0047,0.0018,0.0042,0.0103,0.0196,0.0232,0.0245,0.0404,0.0468,0.0563,0.0583,0.0615,0.0637,0.0611,0.0666,0.067,0.0674,0.0723,0.0732,0.0631,0.0631,0.0631,0.0631,0,-0.0174,-0.0157,-0.0151,-0.01,-0.0053,-0.0027,0.0057,0.0108,0.0159,0.0221,0.0315,0.0409,0.0499,0.0536,0.0579,0.0647,0.0654,0.0655,0.0654,0.0675,0.0727,0.0737,0.0629,0.0629,0.063,0.063,0,0,-0.0267,-0.0185,-0.0185,-0.0161,-0.0066,-0.0036,0.0039,0.0122,0.0159,0.0257,0.0316,0.0447,0.0483,0.0536,0.0598,0.0647,0.0705,0.0658,0.0661,0.0691,0.0796,0.0795,0.0806,0.0701,0.0702,0.0704,0.0824,0,-0.0298,-0.0277,-0.021,-0.0171,-0.0151,-0.0052,0.0013,0.0098,0.0176,0.0253,0.0356,0.0431,0.0488,0.0521,0.0584,0.0676,0.0727,0.0673,0.0785,0.0789,0.0772,0.0816,0.0789,0.0892,0.0833,0.0835,0.0836,0,-0.0349,-0.0322,-0.0306,-0.0213,-0.0195,-0.0154,-0.0057,0.0013,0.0143,0.0204,0.0299,0.0377,0.0497,0.0514,0.0685,0.0641,0.0714,0.078,0.0785,0.0801,0.0806,0.0863,0.0913,0.1036,0.0851,0.085,0.0849,0,-0.0468,-0.039,-0.0387,-0.0356,-0.0241,-0.0212,-0.0145,-0.0021,0.0038,0.016,0.0211,0.0351,0.0433,0.0537,0.0703,0.0682,0.0873,0.0859,0.0933,0.0934,0.0944,0.0943,0.1112,0.0956,0.0956,0.0955,0.0955,0,-0.0543,-0.0537,-0.0449,-0.0449,-0.0432,-0.0313,-0.0272,-0.0185,-0.0058,0.0029,0.0161,0.0263,0.0437,0.0581,0.0694,0.0862,0.0872,0.0946,0.0967,0.0934,0.0931,0.1064,0.111,0.096,0.0959,0.0958,0.0957,0,-0.0682,-0.0623,-0.0617,-0.0522,-0.0497,-0.0494,-0.0366,-0.0309,-0.0188,-0.0072,-0.0034,0.0198,0.0402,0.0577,0.0782,0.0864,0.1071,0.1056,0.1014,0.1027,0.1171,0.1215,0.139,0.1452,0.114,0.1141,0.1142,0,-0.0748,-0.0767,-0.0713,-0.0702,-0.0664,-0.0621,-0.0562,-0.0415,-0.0335,-0.0085,-0.0027,0.02,0.0394,0.0692,0.0859,0.1046,0.1144,0.1125,0.1078,0.1194,0.1259,0.1287,0.1328,0.1092,0.1092,0.1092,0.1092,0,-0.0871,-0.0867,-0.086,-0.0841,-0.0802,-0.0731,-0.0636,-0.0591,-0.0368,-0.0236,0.0008,0.0177,0.0478,0.0707,0.0932,0.1037,0.1188,0.113,0.1267,0.1253,0.128,0.1343,0.1009,0.1094,0.1093,0.1093,0.1093,0.1093,-0.0967,-0.1001,-0.0982,-0.0959,-0.09,-0.0794,-0.0721,-0.0591,-0.0439,-0.0203,-0.0022,0.0221,0.0541,0.0861,0.0999,0.1237,0.123,0.1293,0.1345,0.1372,0.1406,0.1076,0.1164,0.1164,0.1165,0.1165,0.1165,0,-0.1058,-0.1069,-0.1068,-0.1008,-0.0926,-0.0869,-0.0712,-0.0605,-0.0413,-0.0266,-0.005,0.0322,0.0643,0.0938,0.1296,0.1443,0.1473,0.1532,0.1579,0.1617,0.1345,0.1317,0.1422,0.1422,0.1421,0.1421,0.1421,0.1421,-0.1103,-0.1141,-0.1127,-0.1023,-0.095,-0.0783,-0.0673,-0.0541,-0.0425,-0.0172,0.0017,0.0163,0.0653,0.1317,0.1695,0.1721,0.1872,0.1836,0.1954,0.1773,0.1755,0.1738,0.1726,0.1914,0.1915,0.219,0.2193,0.2195]}],[{"header":{"parameterUnit":"m.s-1","parameterCategory":2,"la1":30.2991,"la2":30.254,"lo1":-89.0895,"lo2":-89.0444,"dy":0.0017,"dx":0.0017,"nx":28,"ny":28,"refTime":"2024-10-13T21:00:00:Z","depth":"2","parameterNumber":2,"parameterNumberName":"U-component_of_CURRENTS"},"data":[0,0,0,0,0,0,0,0,0,0,0,0,0,0,0,0,0,0,0,0,0,0,0,0,0,0,0,0,0,0,0,0,0,0,0,0,0,0,0,0,0,0,0,0,0,0,0,0,0,0,0,0,0,0,0,0,0,0,-0.2596,-0.2597,0,-0.2639,-0.2638,-0.2638,-0.2624,-0.2624,-0.2624,-0.2624,-0.2602,-0.2602,-0.2601,0,0,0,0,0,0,0,0,0,0,0,0,0,-0.2425,-0.2428,-0.2596,-0.2597,-0.2598,-0.2639,-0.2638,-0.2638,-0.2624,-0.2624,-0.2624,-0.2624,-0.2602,-0.2602,-0.2601,0,0,0,0,0,0,0,0,0,0,0,0,0,-0.2478,-0.2429,-0.2595,-0.2603,-0.2605,-0.2639,-0.2638,-0.2638,-0.2624,-0.2624,-0.2624,-0.2624,-0.2602,-0.2602,-0.2601,-0.2599,0,0,-0.2599,-0.2598,0,0,0,0,0,0,0,0,-0.2475,-0.2483,-0.2601,-0.2603,-0.2605,-0.2634,-0.2571,-0.2625,-0.2624,-0.2607,-0.2624,-0.2624,-0.2613,-0.2611,-0.2607,-0.2597,-0.2597,-0.2598,-0.2598,-0.2598,-0.2597,0,0,0,0,0,0,0,-0.2472,-0.2481,-0.2603,-0.2602,-0.2605,-0.2579,-0.2586,-0.258,-0.2602,-0.2609,-0.261,-0.2629,-0.2612,-0.2608,-0.2607,-0.2596,-0.2599,-0.2598,-0.2597,-0.2597,-0.2639,-0.264,0,0,0,0,0,0,-0.249,-0.2478,-0.2602,-0.2605,-0.2549,-0.2583,-0.259,-0.2617,-0.2603,-0.2604,-0.263,-0.2629,-0.2609,-0.2608,-0.2606,-0.2648,-0.2598,-0.2597,-0.2597,-0.2637,-0.2639,-0.2641,0,0,0,0,0,0,-0.2486,-0.2501,-0.26,-0.2549,-0.2561,-0.2588,-0.2617,-0.2618,-0.2645,-0.2622,-0.2619,-0.2659,-0.2609,-0.2607,-0.2627,-0.2645,-0.2597,-0.2596,-0.2636,-0.2638,-0.264,-0.2703,0,0,0,0,0,0,-0.2481,-0.2499,-0.253,-0.2551,-0.2565,-0.2651,-0.2618,-0.262,-0.266,-0.2659,-0.2646,-0.2642,-0.2609,-0.2629,-0.2627,-0.2644,-0.2595,-0.2634,-0.2637,-0.2639,-0.2699,-0.2708,-0.2715,0,0,0,0,0,-0.2475,-0.2533,-0.2531,-0.2547,-0.2606,-0.2654,-0.2658,-0.2668,-0.2662,-0.2687,-0.2673,-0.2644,-0.2646,-0.263,-0.2627,-0.2644,-0.2632,-0.2636,-0.2639,-0.2696,-0.2706,-0.2714,0,0,0,0,0,0,-0.2488,-0.2538,-0.2537,-0.261,-0.2639,-0.2656,-0.2693,-0.2692,-0.2701,-0.2705,-0.2666,-0.2662,-0.2686,-0.2665,-0.2648,-0.2667,-0.2633,-0.2637,-0.2678,-0.2687,-0.2694,-0.2708,-0.2595,0,0,0,0,0,-0.2504,-0.2556,-0.2588,-0.265,-0.267,-0.2682,-0.2706,-0.2714,-0.2726,-0.2731,-0.2722,-0.2709,-0.2694,-0.2693,-0.2685,-0.2698,-0.2693,-0.2708,-0.2716,-0.2723,-0.2733,-0.2736,-0.2744,-0.2653,-0.2653,-0.2653,0,0,-0.2529,-0.2565,-0.2596,-0.2655,-0.2677,-0.2713,-0.2695,-0.2753,-0.277,-0.2727,-0.2759,-0.2744,-0.2707,-0.2718,-0.2726,-0.2704,-0.2751,-0.2727,-0.2733,-0.274,-0.274,-0.2749,-0.2757,-0.2655,-0.2655,-0.2654,0,0,-0.2599,-0.2636,-0.2692,-0.2719,-0.2771,-0.2771,-0.2797,-0.2829,-0.2832,-0.2864,-0.2825,-0.2823,-0.2826,-0.2784,-0.2763,-0.2812,-0.2797,-0.2823,-0.2864,-0.2867,-0.2874,-0.288,-0.2906,-0.2914,-0.282,-0.282,-0.282,0,-0.263,-0.2696,-0.2717,-0.2769,-0.2802,-0.2801,-0.2855,-0.2853,-0.2885,-0.2896,-0.2892,-0.2886,-0.2847,-0.283,-0.2838,-0.2826,-0.2846,-0.2827,-0.2876,-0.2882,-0.2887,-0.2912,-0.292,-0.2823,-0.2823,-0.2823,-0.2822,0,-0.2714,-0.2774,-0.2817,-0.2867,-0.2902,-0.2958,-0.296,-0.2987,-0.2994,-0.299,-0.3012,-0.2965,-0.2962,-0.2941,-0.2899,-0.2914,-0.2924,-0.2889,-0.285,-0.29,-0.2923,-0.293,-0.2828,-0.2827,-0.2826,-0.2825,0,0,-0.2762,-0.2857,-0.2872,-0.2908,-0.2961,-0.2997,-0.3031,-0.306,-0.3094,-0.3094,-0.3135,-0.3076,-0.3068,-0.3044,-0.2993,-0.2977,-0.3015,-0.296,-0.2958,-0.2982,-0.3062,-0.2849,-0.2836,-0.3002,-0.3004,-0.3004,-0.307,0,-0.282,-0.2926,-0.2959,-0.3047,-0.3094,-0.3111,-0.3145,-0.3168,-0.3183,-0.322,-0.3158,-0.3174,-0.3098,-0.3107,-0.3081,-0.3034,-0.3036,-0.3003,-0.3013,-0.3014,-0.2813,-0.2836,-0.2614,-0.2633,-0.3077,-0.3078,-0.3079,0,-0.2865,-0.2938,-0.3043,-0.3134,-0.316,-0.3208,-0.3276,-0.331,-0.3334,-0.3352,-0.3353,-0.3324,-0.3285,-0.3224,-0.3176,-0.3172,-0.3134,-0.3091,-0.3092,-0.2873,-0.2811,-0.2651,-0.2629,-0.309,-0.3089,-0.3089,-0.3088,0,-0.2857,-0.2981,-0.3067,-0.3101,-0.3207,-0.326,-0.3306,-0.3357,-0.3378,-0.3437,-0.3448,-0.3443,-0.3399,-0.3379,-0.3236,-0.3249,-0.3181,-0.3186,-0.2968,-0.2956,-0.2751,-0.2715,-0.3177,-0.3177,-0.3177,-0.3177,-0.3177,0,-0.2883,-0.295,-0.3075,-0.3128,-0.3222,-0.3293,-0.3385,-0.3429,-0.3486,-0.3463,-0.3507,-0.3443,-0.3433,-0.3357,-0.33,-0.3115,-0.3227,-0.2979,-0.2946,-0.2766,-0.2733,-0.3109,-0.31,-0.3179,-0.3179,-0.3178,-0.3178,0,-0.2851,-0.2941,-0.3039,-0.318,-0.3222,-0.3288,-0.3396,-0.3404,-0.3504,-0.3475,-0.3481,-0.3453,-0.3332,-0.3288,-0.3218,-0.3126,-0.3027,-0.2936,-0.2723,-0.2659,-0.282,-0.2815,-0.2781,-0.2774,-0.2767,-0.2762,-0.2758,0,-0.2846,-0.2895,-0.305,-0.3065,-0.3132,-0.3236,-0.3245,-0.3385,-0.3361,-0.3395,-0.3311,-0.326,-0.3059,-0.2912,-0.2794,-0.2692,-0.2813,-0.2455,-0.2404,-0.2802,-0.2775,-0.2779,-0.2781,-0.2203,-0.2195,-0.2188,-0.2182,0,-0.2787,-0.2843,-0.2889,-0.295,-0.2982,-0.3038,-0.3069,-0.3062,-0.3134,-0.3078,-0.2912,-0.2791,-0.2651,-0.2385,-0.2293,-0.2214,-0.2465,-0.2304,-0.2778,-0.2294,-0.2249,-0.2225,-0.2249,-0.212,-0.2127,-0.2131,-0.2135,-0.2137,-0.2675,-0.2678,-0.2704,-0.2735,-0.2773,-0.274,-0.2675,-0.2644,-0.2555,-0.2372,-0.2435,-0.2181,-0.2173,-0.1844,-0.177,-0.18,-0.196,-0.1935,-0.1962,-0.1995,-0.1871,-0.1812,-0.1583,-0.1586,-0.1589,-0.1591,-0.1593,0,-0.2451,-0.2452,-0.2454,-0.2457,-0.2386,-0.2518,-0.2434,-0.225,-0.1982,-0.1938,-0.1742,-0.1471,-0.1303,-0.1393,-0.1311,-0.1301,-0.1362,-0.1295,-0.1386,-0.1443,-0.1496,-0.1354,-0.0926,-0.0925,-0.0924,-0.0922,0,0,-0.231,-0.2193,-0.219,-0.2025,-0.2042,-0.1862,-0.1759,-0.1485,-0.1377,-0.1104,-0.1031,-0.106,-0.1214,-0.0996,-0.0992,-0.0956,-0.1194,-0.0916,-0.1435,-0.1588,-0.1639,-0.1829,-0.1667,0,0,0,0,0]},{"header":{"parameterUnit":"m.s-1","parameterCategory":2,"la1":30.2991,"la2":30.254,"lo1":-89.0895,"lo2":-89.0444,"dy":0.0017,"dx":0.0017,"nx":28,"ny":28,"refTime":"2024-10-13T21:00:00:Z","depth":"2","parameterNumber":3,"parameterNumberName":"V-component_of_CURRENTS"},"data":[0,0,0,0,0,0,0,0,0,0,0,0,0,0,0,0,0,0,0,0,0,0,0,0,0,0,0,0,0,0,0,0,0,0,0,0,0,0,0,0,0,0,0,0,0,0,0,0,0,0,0,0,0,0,0,0,0,0,-0.0256,-0.0254,0,-0.0122,-0.012,-0.0119,-0.0038,-0.0037,-0.0037,-0.0036,0.0146,0.015,0.0155,0,0,0,0,0,0,0,0,0,0,0,0,0,-0.0335,-0.0335,-0.0256,-0.0254,-0.0252,-0.0122,-0.012,-0.0119,-0.0038,-0.0037,-0.0037,-0.0036,0.0145,0.015,0.0155,0,0,0,0,0,0,0,0,0,0,0,0,0,-0.0263,-0.0335,-0.0256,-0.0195,-0.0188,-0.0122,-0.012,-0.0118,-0.0038,-0.0037,-0.0037,-0.0036,0.0143,0.0149,0.0156,0.0178,0,0,0.0175,0.0178,0,0,0,0,0,0,0,0,-0.0267,-0.0261,-0.0206,-0.0199,-0.0191,-0.0094,-0.0081,-0.0016,-0.0039,-0.0097,-0.0036,-0.0035,0.0071,0.0083,0.0103,0.0187,0.0195,0.0176,0.018,0.0183,0.0185,0,0,0,0,0,0,0,-0.0273,-0.0265,-0.0205,-0.0204,-0.0195,-0.0137,-0.0127,-0.0068,-0.002,-0.0092,-0.0085,-0.0067,0.0075,0.0097,0.0108,0.0197,0.0176,0.0182,0.0186,0.0188,0.0407,0.0409,0,0,0,0,0,0,-0.0292,-0.0271,-0.0209,-0.0201,-0.0225,-0.0137,-0.0125,-0.0128,-0.0022,-0.0005,-0.0068,-0.0064,0.0085,0.01,0.0115,0.0216,0.0183,0.0189,0.0192,0.0405,0.0407,0.0409,0,0,0,0,0,0,-0.0294,-0.0288,-0.0215,-0.0229,-0.0216,-0.0137,-0.0139,-0.0125,-0.0083,-0.0004,0.0014,-0.0038,0.0086,0.0106,0.019,0.0222,0.0192,0.0198,0.0403,0.0406,0.0408,0.0376,0,0,0,0,0,0,-0.0298,-0.0291,-0.0285,-0.0232,-0.0216,-0.0169,-0.0139,-0.0123,-0.0074,-0.0067,0.0028,0.0044,0.0089,0.018,0.0196,0.023,0.0203,0.04,0.0404,0.0407,0.0374,0.0377,0.038,0,0,0,0,0,-0.0301,-0.0307,-0.0286,-0.0277,-0.0216,-0.0169,-0.0155,-0.0096,-0.0073,-0.0056,0.0016,0.0042,0.0215,0.0186,0.0205,0.0241,0.0399,0.0403,0.0407,0.0373,0.0377,0.038,0,0,0,0,0,0,-0.0328,-0.0298,-0.0274,-0.0266,-0.0215,-0.0154,-0.0127,-0.0091,-0.0022,-0.0008,0.0062,0.0084,0.0171,0.0213,0.018,0.0318,0.0314,0.0322,0.0282,0.0285,0.0288,0.0271,0.0208,0,0,0,0,0,-0.0335,-0.0333,-0.0285,-0.027,-0.0251,-0.0186,-0.0154,-0.0117,-0.0055,-0.0024,0.0049,0.0129,0.0201,0.0246,0.0314,0.0385,0.0418,0.0425,0.0427,0.0429,0.0431,0.0495,0.0502,0.0424,0.0424,0.0424,0,0,-0.0339,-0.0318,-0.0315,-0.0274,-0.0231,-0.0202,-0.0165,-0.012,-0.0084,-0.0014,0.0068,0.014,0.0222,0.0304,0.0347,0.0345,0.0472,0.0435,0.0435,0.0436,0.05,0.0507,0.0514,0.0427,0.0426,0.0426,0,0,-0.0353,-0.033,-0.0335,-0.0297,-0.0239,-0.02,-0.0188,-0.0116,-0.0073,0.0007,0.007,0.0158,0.0271,0.0337,0.0382,0.0441,0.048,0.0473,0.0476,0.0537,0.0543,0.0549,0.06,0.0611,0.0476,0.0476,0.0476,0,-0.0356,-0.0356,-0.0322,-0.0307,-0.0271,-0.0204,-0.0185,-0.0136,-0.0038,0.0007,0.0032,0.022,0.0285,0.0386,0.0412,0.0445,0.0483,0.045,0.0537,0.0544,0.055,0.0601,0.0613,0.0475,0.0475,0.0475,0.0475,0,-0.0379,-0.0359,-0.0353,-0.0318,-0.0275,-0.0246,-0.0179,-0.0124,-0.0058,0.0004,0.0125,0.0223,0.0335,0.0375,0.0414,0.0505,0.0519,0.0525,0.0517,0.0555,0.0608,0.0621,0.0474,0.0474,0.0474,0.0474,0,0,-0.0438,-0.0386,-0.038,-0.0367,-0.0279,-0.0262,-0.0188,-0.0111,-0.0063,0.0049,0.0127,0.0263,0.0329,0.0385,0.0455,0.0515,0.0594,0.0541,0.0545,0.057,0.073,0.0645,0.0651,0.0614,0.0616,0.0618,0.0747,0,-0.0461,-0.0469,-0.0408,-0.038,-0.0381,-0.0278,-0.0217,-0.0132,-0.0039,0.0054,0.0171,0.027,0.0327,0.0387,0.0461,0.0566,0.0628,0.0558,0.0708,0.0713,0.0615,0.0663,0.0593,0.0693,0.076,0.0762,0.0763,0,-0.0509,-0.0508,-0.0505,-0.0437,-0.0421,-0.0377,-0.0273,-0.0205,-0.0054,0.0025,0.0156,0.0251,0.0388,0.041,0.0606,0.0561,0.0645,0.0714,0.0721,0.066,0.0652,0.067,0.0715,0.0786,0.0784,0.0782,0.0781,0,-0.0621,-0.0572,-0.0581,-0.0557,-0.0466,-0.0423,-0.0357,-0.0215,-0.0158,0.001,0.0075,0.0253,0.0342,0.0481,0.0643,0.0632,0.0836,0.0833,0.0836,0.0831,0.0809,0.0797,0.0953,0.0953,0.0953,0.0952,0.0952,0,-0.0692,-0.0692,-0.0638,-0.0644,-0.0641,-0.052,-0.0462,-0.0369,-0.0215,-0.0154,0.0046,0.0119,0.0362,0.0511,0.0647,0.0785,0.0846,0.0845,0.0861,0.0795,0.0781,0.0889,0.088,0.0957,0.0956,0.0955,0.0954,0,-0.0813,-0.0768,-0.0792,-0.0723,-0.07,-0.0702,-0.057,-0.0526,-0.0351,-0.0264,-0.0214,0.0031,0.0229,0.046,0.0695,0.0768,0.0918,0.0947,0.0847,0.0846,0.0871,0.086,0.096,0.0958,0.0956,0.0955,0.0954,0,-0.0872,-0.0903,-0.0899,-0.0922,-0.0888,-0.085,-0.0815,-0.0635,-0.0581,-0.0341,-0.0326,-0.0082,0.0039,0.0375,0.0593,0.0821,0.0892,0.0863,0.0809,0.0867,0.0874,0.0865,0.0855,0.0789,0.0786,0.0784,0.0783,0,-0.0993,-0.0996,-0.1025,-0.1093,-0.1088,-0.1062,-0.0994,-0.0967,-0.0748,-0.0645,-0.0487,-0.0365,-0.0044,0.0187,0.0492,0.0617,0.082,0.0821,0.0955,0.0763,0.0707,0.0712,0.0709,0.0766,0.0767,0.0769,0.0769,0.077,-0.1078,-0.1152,-0.1197,-0.1257,-0.1258,-0.1234,-0.1181,-0.1097,-0.0995,-0.077,-0.0679,-0.0437,-0.0209,0.0202,0.0407,0.0658,0.066,0.0722,0.0729,0.0738,0.066,0.0601,0.0626,0.0627,0.0628,0.0629,0.0629,0,-0.118,-0.1252,-0.1342,-0.1381,-0.1397,-0.1346,-0.1262,-0.1146,-0.1019,-0.087,-0.0703,-0.0438,-0.0213,0.0107,0.0422,0.0546,0.0584,0.0612,0.0637,0.065,0.0663,0.0583,0.0529,0.0529,0.053,0.0531,0,0,-0.123,-0.1357,-0.1415,-0.1479,-0.1474,-0.139,-0.1312,-0.1128,-0.0965,-0.0784,-0.0608,-0.0464,-0.0182,0.0027,0.0217,0.04,0.0499,0.0423,0.0476,0.0491,0.0503,0.0684,0.0569,0,0,0,0,0]}],[{"header":{"parameterUnit":"m.s-1","parameterCategory":2,"la1":30.2991,"la2":30.254,"lo1":-89.0895,"lo2":-89.0444,"dy":0.0017,"dx":0.0017,"nx":28,"ny":28,"refTime":"2024-10-13T21:00:00:Z","depth":"4","parameterNumber":2,"parameterNumberName":"U-component_of_CURRENTS"},"data":[0,0,0,0,0,0,0,0,0,0,0,0,0,0,0,0,0,0,0,0,0,0,0,0,0,0,0,0,0,0,0,0,0,0,0,0,0,0,0,0,0,0,0,0,0,0,0,0,0,0,0,0,0,0,0,0,0,0,-0.0801,-0.0802,0,-0.0869,-0.087,-0.0871,-0.0904,-0.0904,-0.0904,-0.0904,-0.0978,-0.098,-0.0982,0,0,0,0,0,0,0,0,0,0,0,0,0,-0.0739,-0.0739,-0.0801,-0.0802,-0.0803,-0.0869,-0.087,-0.0871,-0.0904,-0.0904,-0.0904,-0.0904,-0.0977,-0.098,-0.0982,0,0,0,0,0,0,0,0,0,0,0,0,0,-0.0782,-0.074,-0.0801,-0.0827,-0.083,-0.0869,-0.087,-0.0871,-0.0904,-0.0904,-0.0904,-0.0904,-0.0976,-0.0979,-0.0982,-0.1001,0,0,-0.0991,-0.0993,0,0,0,0,0,0,0,0,-0.0779,-0.0784,-0.0823,-0.0826,-0.0829,-0.0878,-0.0875,-0.0915,-0.0904,-0.0876,-0.0904,-0.0904,-0.0945,-0.0951,-0.0963,-0.1004,-0.1008,-0.0992,-0.0993,-0.0995,-0.0996,0,0,0,0,0,0,0,-0.0776,-0.0782,-0.0828,-0.0824,-0.0828,-0.0849,-0.0855,-0.0883,-0.091,-0.0878,-0.0881,-0.0889,-0.0947,-0.096,-0.0965,-0.1009,-0.0991,-0.0994,-0.0996,-0.0997,-0.1103,-0.1104,0,0,0,0,0,0,-0.0766,-0.0779,-0.0826,-0.083,-0.0804,-0.085,-0.0857,-0.0862,-0.0909,-0.0917,-0.0889,-0.089,-0.0955,-0.0962,-0.0968,-0.1065,-0.0995,-0.0997,-0.0999,-0.1102,-0.1103,-0.1104,0,0,0,0,0,0,-0.0765,-0.077,-0.0823,-0.0806,-0.0815,-0.0851,-0.0857,-0.0864,-0.0894,-0.0917,-0.0924,-0.0914,-0.0956,-0.0964,-0.1002,-0.1066,-0.0999,-0.1001,-0.1101,-0.1103,-0.1104,-0.1214,0,0,0,0,0,0,-0.0762,-0.0769,-0.0777,-0.0805,-0.0815,-0.0845,-0.0858,-0.0865,-0.0898,-0.0901,-0.0941,-0.0947,-0.0956,-0.0998,-0.1005,-0.1069,-0.1004,-0.11,-0.1102,-0.1103,-0.1209,-0.1219,-0.1227,0,0,0,0,0,-0.076,-0.077,-0.0777,-0.0783,-0.0822,-0.0845,-0.0852,-0.0878,-0.0899,-0.0907,-0.094,-0.0947,-0.1016,-0.1001,-0.101,-0.1075,-0.1099,-0.1101,-0.1103,-0.1205,-0.1217,-0.1227,0,0,0,0,0,0,-0.075,-0.0775,-0.0783,-0.0801,-0.0819,-0.085,-0.0871,-0.0889,-0.0924,-0.0939,-0.096,-0.0968,-0.1035,-0.1022,-0.1006,-0.1105,-0.1059,-0.1063,-0.1133,-0.1145,-0.1154,-0.117,-0.1006,0,0,0,0,0,-0.075,-0.0762,-0.0786,-0.08,-0.0815,-0.0847,-0.0866,-0.0884,-0.0915,-0.0932,-0.0964,-0.0999,-0.1049,-0.1068,-0.11,-0.1147,-0.1153,-0.119,-0.12,-0.1208,-0.1223,-0.1376,-0.1403,-0.1112,-0.1112,-0.1112,0,0,-0.0753,-0.0766,-0.0776,-0.0799,-0.0824,-0.0848,-0.0859,-0.0893,-0.0923,-0.0935,-0.0997,-0.1041,-0.1068,-0.1134,-0.1161,-0.1132,-0.1262,-0.1211,-0.1218,-0.1229,-0.1382,-0.1411,-0.1437,-0.1114,-0.1113,-0.1113,0,0,-0.0754,-0.0777,-0.0785,-0.0806,-0.0839,-0.0862,-0.0874,-0.0919,-0.0949,-0.1004,-0.1039,-0.111,-0.1161,-0.1208,-0.1235,-0.1306,-0.1318,-0.132,-0.1382,-0.1531,-0.1558,-0.1582,-0.1501,-0.1518,-0.1317,-0.1317,-0.1317,0,-0.0755,-0.077,-0.0792,-0.0808,-0.0831,-0.087,-0.0891,-0.0931,-0.0983,-0.1023,-0.1029,-0.1181,-0.1201,-0.1313,-0.1343,-0.1335,-0.1359,-0.1345,-0.155,-0.1575,-0.1598,-0.1511,-0.1528,-0.1322,-0.1322,-0.1321,-0.1321,0,-0.0756,-0.0782,-0.0795,-0.0827,-0.0852,-0.0882,-0.093,-0.0975,-0.1027,-0.1077,-0.1206,-0.1266,-0.1356,-0.1385,-0.1391,-0.1564,-0.1497,-0.156,-0.1535,-0.1635,-0.1532,-0.1548,-0.133,-0.1328,-0.1327,-0.1325,0,0,-0.0727,-0.0782,-0.079,-0.0809,-0.0869,-0.0886,-0.0952,-0.1019,-0.1072,-0.1178,-0.1263,-0.14,-0.147,-0.1504,-0.1552,-0.1676,-0.181,-0.1698,-0.1703,-0.1633,-0.2008,-0.1783,-0.1776,-0.1963,-0.197,-0.1975,-0.1825,0,-0.0723,-0.0746,-0.0783,-0.0827,-0.0848,-0.0912,-0.0961,-0.1035,-0.111,-0.1198,-0.1334,-0.1463,-0.1505,-0.1594,-0.1723,-0.1842,-0.188,-0.1834,-0.1905,-0.1901,-0.1713,-0.1801,-0.1996,-0.1836,-0.184,-0.1842,-0.1844,0,-0.0707,-0.0728,-0.0756,-0.0823,-0.084,-0.0879,-0.0968,-0.1003,-0.1138,-0.1229,-0.1396,-0.1518,-0.1726,-0.1748,-0.1986,-0.198,-0.1982,-0.2033,-0.2031,-0.1811,-0.1715,-0.1744,-0.1873,-0.187,-0.1868,-0.1866,-0.1865,0,-0.0649,-0.0713,-0.0732,-0.0755,-0.0832,-0.0873,-0.0909,-0.1018,-0.1061,-0.1273,-0.1374,-0.1627,-0.1734,-0.1941,-0.1984,-0.2076,-0.2131,-0.2267,-0.2004,-0.1977,-0.2175,-0.2152,-0.237,-0.237,-0.2371,-0.2371,-0.2371,0,-0.0615,-0.0635,-0.0714,-0.0722,-0.0751,-0.0821,-0.088,-0.0951,-0.1073,-0.1116,-0.1392,-0.1469,-0.1823,-0.1874,-0.1976,-0.1964,-0.2118,-0.2009,-0.1981,-0.2194,-0.2178,-0.2175,-0.2155,-0.2365,-0.2366,-0.2367,-0.2368,0,-0.0535,-0.0586,-0.061,-0.0696,-0.0716,-0.0725,-0.0823,-0.0868,-0.1018,-0.108,-0.1186,-0.139,-0.154,-0.1677,-0.1868,-0.1872,-0.1941,-0.1824,-0.1826,-0.1798,-0.1687,-0.1674,-0.1715,-0.1707,-0.17,-0.1694,-0.169,0,-0.0495,-0.0497,-0.0558,-0.0568,-0.0608,-0.0656,-0.0686,-0.0817,-0.086,-0.0982,-0.099,-0.1147,-0.1278,-0.1303,-0.1497,-0.161,-0.1596,-0.1558,-0.1878,-0.1679,-0.1648,-0.1645,-0.164,-0.1679,-0.1677,-0.1675,-0.1674,0,-0.0412,-0.0436,-0.0447,-0.0468,-0.0502,-0.054,-0.0588,-0.0611,-0.072,-0.0861,-0.0864,-0.0979,-0.1001,-0.1194,-0.1156,-0.1263,-0.1652,-0.1492,-0.1515,-0.1817,-0.1637,-0.1611,-0.1615,-0.165,-0.1654,-0.1656,-0.1657,0,-0.0347,-0.0329,-0.0354,-0.0368,-0.0395,-0.0413,-0.0464,-0.0516,-0.0564,-0.0704,-0.0632,-0.0788,-0.0882,-0.0983,-0.0981,-0.106,-0.1222,-0.1309,-0.1345,-0.1373,-0.1358,-0.1085,-0.0911,0,0,0,0,0,-0.0293,-0.0265,-0.0263,-0.0279,-0.031,-0.0336,-0.0393,-0.0459,-0.0536,-0.0509,-0.059,-0.0627,-0.0738,-0.0797,-0.0857,-0.0934,-0.1235,-0.1002,-0.1354,-0.1522,-0.1549,-0.1578,0,0,0,0,0,0,-0.0256,-0.0234,-0.023,-0.0213,-0.0216,-0.0251,-0.0285,-0.034,-0.0356,-0.0436,-0.0501,-0.0592,-0.0714,-0.069,-0.0835,-0.0866,-0.1085,-0.1088,-0.1088,-0.1506,-0.1531,-0.1552,-0.1592,0,0,0,0,0]},{"header":{"parameterUnit":"m.s-1","parameterCategory":2,"la1":30.2991,"la2":30.254,"lo1":-89.0895,"lo2":-89.0444,"dy":0.0017,"dx":0.0017,"nx":28,"ny":28,"refTime":"2024-10-13T21:00:00:Z","depth":"4","parameterNumber":3,"parameterNumberName":"V-component_of_CURRENTS"},"data":[0,0,0,0,0,0,0,0,0,0,0,0,0,0,0,0,0,0,0,0,0,0,0,0,0,0,0,0,0,0,0,0,0,0,0,0,0,0,0,0,0,0,0,0,0,0,0,0,0,0,0,0,0,0,0,0,0,0,-0.0395,-0.0395,0,-0.0401,-0.0401,-0.0401,-0.0375,-0.0374,-0.0373,-0.0372,-0.035,-0.035,-0.0351,0,0,0,0,0,0,0,0,0,0,0,0,0,-0.0374,-0.0374,-0.0395,-0.0395,-0.0395,-0.0401,-0.0401,-0.0401,-0.0375,-0.0374,-0.0373,-0.0372,-0.035,-0.035,-0.0351,0,0,0,0,0,0,0,0,0,0,0,0,0,-0.0382,-0.0374,-0.0395,-0.0382,-0.0381,-0.0401,-0.0401,-0.0401,-0.0375,-0.0374,-0.0373,-0.0372,-0.035,-0.035,-0.0351,-0.0375,0,0,-0.0351,-0.0351,0,0,0,0,0,0,0,0,-0.0381,-0.0383,-0.0384,-0.0383,-0.0382,-0.0386,-0.0386,-0.0391,-0.0375,-0.0377,-0.0372,-0.0371,-0.036,-0.036,-0.0364,-0.0374,-0.0373,-0.0351,-0.0351,-0.0351,-0.0351,0,0,0,0,0,0,0,-0.0381,-0.0382,-0.0397,-0.0384,-0.0383,-0.0381,-0.0381,-0.0387,-0.0375,-0.0377,-0.0375,-0.0376,-0.0359,-0.0364,-0.0363,-0.0373,-0.0351,-0.0351,-0.0352,-0.0352,-0.0412,-0.0414,0,0,0,0,0,0,-0.0381,-0.0382,-0.0397,-0.0397,-0.0379,-0.0383,-0.0382,-0.0386,-0.0375,-0.0373,-0.0377,-0.0375,-0.0364,-0.0363,-0.0362,-0.0405,-0.0351,-0.0352,-0.0352,-0.0411,-0.0413,-0.0414,0,0,0,0,0,0,-0.038,-0.0382,-0.0397,-0.0389,-0.0391,-0.0384,-0.0388,-0.0387,-0.0392,-0.0376,-0.0372,-0.0384,-0.0363,-0.0362,-0.0372,-0.0403,-0.0352,-0.0352,-0.0409,-0.0411,-0.0413,-0.0481,0,0,0,0,0,0,-0.038,-0.0382,-0.0391,-0.039,-0.0391,-0.0413,-0.0389,-0.0387,-0.0394,-0.0392,-0.0381,-0.0378,-0.0362,-0.0372,-0.0372,-0.0403,-0.0352,-0.0407,-0.041,-0.0413,-0.0477,-0.0486,-0.0493,0,0,0,0,0,-0.0379,-0.0397,-0.0391,-0.0393,-0.0401,-0.0414,-0.0416,-0.0406,-0.0396,-0.0406,-0.0397,-0.0378,-0.039,-0.0373,-0.0373,-0.0404,-0.0406,-0.0409,-0.0412,-0.0474,-0.0484,-0.0493,0,0,0,0,0,0,-0.0391,-0.0396,-0.0389,-0.0406,-0.0411,-0.041,-0.0423,-0.0415,-0.0418,-0.0417,-0.0395,-0.0392,-0.0415,-0.0401,-0.0383,-0.0431,-0.0396,-0.04,-0.0443,-0.0452,-0.046,-0.0465,-0.0352,0,0,0,0,0,-0.0399,-0.0413,-0.0413,-0.0427,-0.0434,-0.043,-0.0436,-0.0431,-0.0431,-0.0431,-0.0427,-0.0425,-0.0432,-0.0433,-0.0438,-0.0461,-0.0421,-0.0483,-0.0491,-0.0497,-0.0503,-0.0404,-0.0402,-0.0425,-0.0425,-0.0425,0,0,-0.0411,-0.0412,-0.0422,-0.0431,-0.0436,-0.0463,-0.0432,-0.0448,-0.0474,-0.043,-0.0467,-0.0455,-0.0445,-0.0473,-0.0482,-0.0462,-0.0488,-0.0502,-0.0507,-0.0509,-0.0407,-0.0404,-0.0402,-0.0427,-0.0427,-0.0427,0,0,-0.0442,-0.0442,-0.0466,-0.0479,-0.0489,-0.049,-0.0498,-0.0506,-0.0513,-0.054,-0.0519,-0.0532,-0.0538,-0.0545,-0.0545,-0.0603,-0.0533,-0.0594,-0.0635,-0.054,-0.0536,-0.0532,-0.0549,-0.0545,-0.0595,-0.0595,-0.0595,0,-0.0453,-0.0486,-0.0476,-0.0505,-0.0528,-0.0508,-0.0549,-0.0556,-0.0568,-0.0589,-0.0562,-0.0589,-0.0582,-0.0617,-0.0627,-0.0624,-0.0565,-0.0599,-0.0546,-0.0541,-0.0536,-0.0552,-0.0547,-0.0599,-0.0599,-0.0598,-0.0598,0,-0.0503,-0.0536,-0.0555,-0.0587,-0.0608,-0.064,-0.0651,-0.0674,-0.0676,-0.0685,-0.0719,-0.0701,-0.0717,-0.0714,-0.0682,-0.0663,-0.0638,-0.0565,-0.0515,-0.0537,-0.0555,-0.0549,-0.0604,-0.0603,-0.0602,-0.0601,0,0,-0.051,-0.0578,-0.0586,-0.0625,-0.0659,-0.0682,-0.0733,-0.0776,-0.0816,-0.0814,-0.0869,-0.0862,-0.084,-0.0838,-0.0802,-0.0715,-0.0657,-0.061,-0.0603,-0.0618,-0.049,-0.0437,-0.0425,-0.0521,-0.0518,-0.0516,-0.0543,0,-0.0554,-0.0631,-0.0655,-0.0739,-0.0783,-0.0801,-0.0857,-0.0891,-0.0904,-0.0951,-0.0934,-0.0965,-0.089,-0.0892,-0.0798,-0.0675,-0.0629,-0.0661,-0.0475,-0.0473,-0.0411,-0.0411,-0.0509,-0.0538,-0.0537,-0.0536,-0.0535,0,-0.0594,-0.0644,-0.0737,-0.0831,-0.0855,-0.0909,-0.099,-0.1029,-0.1079,-0.1099,-0.1106,-0.1078,-0.1034,-0.0938,-0.0751,-0.0747,-0.0638,-0.0536,-0.0532,-0.0445,-0.0403,-0.0495,-0.0522,-0.0523,-0.0524,-0.0525,-0.0526,0,-0.0601,-0.0701,-0.0782,-0.0814,-0.0913,-0.0974,-0.1023,-0.1082,-0.1119,-0.1184,-0.1214,-0.1158,-0.1136,-0.0943,-0.0767,-0.0719,-0.0544,-0.0467,-0.0357,-0.0357,-0.0368,-0.037,-0.0345,-0.0345,-0.0344,-0.0344,-0.0344,0,-0.0634,-0.0697,-0.0802,-0.0849,-0.0951,-0.1011,-0.1109,-0.1157,-0.1227,-0.1244,-0.1279,-0.1251,-0.1099,-0.0989,-0.0805,-0.0576,-0.0584,-0.0374,-0.0331,-0.0412,-0.0418,-0.0368,-0.037,-0.0345,-0.0345,-0.0345,-0.0345,0,-0.0627,-0.0694,-0.079,-0.0917,-0.0958,-0.1028,-0.1144,-0.1189,-0.1276,-0.1296,-0.1314,-0.1307,-0.1132,-0.1031,-0.0769,-0.064,-0.0431,-0.0369,-0.0571,-0.0539,-0.0317,-0.0323,-0.0227,-0.0225,-0.0223,-0.0221,-0.022,0,-0.0631,-0.0683,-0.082,-0.0868,-0.0934,-0.104,-0.1094,-0.1197,-0.1207,-0.1259,-0.1232,-0.1186,-0.1133,-0.0836,-0.0675,-0.0455,-0.0387,-0.0367,-0.0237,-0.0322,-0.0291,-0.03,-0.0309,-0.0217,-0.0216,-0.0216,-0.0215,0,-0.0633,-0.0686,-0.0756,-0.0856,-0.0931,-0.1001,-0.1066,-0.1088,-0.1146,-0.1222,-0.1136,-0.1053,-0.0918,-0.0732,-0.0646,-0.0434,-0.0403,-0.0344,-0.0345,-0.0222,-0.0308,-0.0281,-0.0292,-0.0208,-0.0209,-0.021,-0.021,0,-0.0616,-0.0656,-0.0745,-0.0827,-0.0898,-0.093,-0.0994,-0.0992,-0.1029,-0.1068,-0.0993,-0.0936,-0.0905,-0.0717,-0.0558,-0.0439,-0.0339,-0.0273,-0.0275,-0.0281,-0.0259,-0.0375,-0.0258,0,0,0,0,0,-0.0594,-0.0629,-0.0705,-0.079,-0.0853,-0.0896,-0.0941,-0.0989,-0.1025,-0.0939,-0.0982,-0.0837,-0.0663,-0.0607,-0.0461,-0.0472,-0.0318,-0.0293,-0.0242,-0.0171,-0.0179,-0.0134,0,0,0,0,0,0,-0.0579,-0.0638,-0.0684,-0.073,-0.0775,-0.0833,-0.0863,-0.0898,-0.0851,-0.0881,-0.0791,-0.0774,-0.0612,-0.0746,-0.0452,-0.042,-0.0357,-0.0231,-0.0227,-0.0167,-0.0174,-0.018,-0.0136,0,0,0,0,0]}]]